EHI
12 15 13 8 6 5 5 6 6 6 5 3 1 1 1 2 4 3 1 0 0 1 1 0 0 0 0 0 0 0 0 0 0 0 0 0 0 0 0 0 0 0 0
20 18 13 10 9 10 10 9 7 5 4 2 1 2 3 4 4 3 1 0 0 1 2 1 0 0 0 0 0 0 0 0 0 0 0 0 0 0 0 0 0 0 0
30 23 14 10 11 16 18 13 8 3 1 0 1 3 5 4 3 3 1 0 0 1 2 1 0 0 0 0 0 0 0 0 0 0 0 0 0 0 0 0 0 0 0
35 26 16 12 13 17 17 13 7 3 1 1 2 3 3 3 2 2 1 1 2 2 2 1 0 0 0 0 0 0 0 0 0 0 0 0 0 0 0 0 0 0 0
34 27 21 19 16 15 13 9 7 5 2 2 2 2 2 2 2 1 1 2 3 3 1 1 1 0 0 0 0 0 0 0 0 0 0 0 0 0 0 0 0 0 0
32 25 23 23 19 14 11 10 10 7 3 2 1 1 1 2 2 2 1 1 2 2 1 1 1 1 0 0 0 0 1 1 1 1 0 0 0 0 0 0 0 0 0
29 24 22 24 21 16 13 13 11 6 2 1 0 0 0 1 3 2 1 0 0 1 2 3 3 3 2 1 0 1 2 2 2 1 0 0 0 0 0 0 0 0 0
27 23 24 25 23 20 16 12 9 4 1 0 0 0 0 1 2 2 1 0 0 0 2 4 4 5 4 2 1 1 2 2 1 1 0 0 0 0 0 0 0 0 0
27 25 25 25 22 20 15 11 7 4 2 0 0 0 0 0 0 0 0 0 0 0 1 2 3 5 5 3 2 2 4 4 2 1 0 0 0 0 0 0 0 0 0
28 27 26 26 23 19 14 10 8 7 4 2 1 1 1 1 0 0 0 0 1 0 0 0 2 4 4 3 3 4 6 6 4 2 1 0 0 0 0 0 0 0 0
30 30 30 29 26 21 17 14 13 11 8 5 2 1 2 2 0 0 0 0 0 0 0 1 2 3 3 3 4 5 6 5 3 3 2 1 0 0 0 0 0 0 0
32 33 32 32 29 25 22 21 19 15 12 9 5 3 3 1 0 0 0 0 0 0 1 2 3 2 2 3 4 5 6 3 1 2 2 1 0 0 0 0 0 0 0
34 34 34 35 34 28 24 23 21 17 14 11 8 6 5 2 0 0 0 0 1 1 2 3 3 3 2 3 3 3 3 1 0 1 1 1 0 0 0 0 0 0 0
34 37 38 37 34 26 21 22 21 17 15 13 9 7 6 3 1 0 0 0 0 0 1 2 3 3 3 2 2 1 1 0 0 0 0 0 0 0 0 0 0 0 0
31 37 39 34 29 24 22 22 20 16 16 14 10 7 5 4 3 2 1 1 1 0 1 1 2 3 3 2 1 0 0 0 0 0 0 0 0 0 0 0 0 0 0
34 38 37 33 28 25 24 22 19 14 14 13 10 8 7 6 5 4 3 3 3 2 2 2 3 4 5 3 1 1 1 0 0 0 0 0 0 0 0 0 0 0 0
38 39 38 34 29 25 23 21 17 12 10 9 8 9 9 8 6 4 3 3 3 3 2 3 5 9 10 6 4 2 1 0 0 0 0 0 0 0 0 0 0 0 0
38 38 39 35 28 23 23 20 15 10 7 6 6 8 9 8 6 4 2 2 2 1 1 2 6 11 12 10 7 4 2 1 0 0 0 0 0 0 0 0 0 0 0
36 36 35 32 26 22 21 19 15 10 7 4 4 5 6 6 5 4 3 2 2 1 1 1 3 6 9 10 9 7 4 2 1 0 0 0 0 0 0 0 0 0 0
34 32 30 28 24 20 17 16 14 10 6 4 3 3 4 4 4 4 3 3 2 3 3 1 0 3 5 7 9 8 5 3 1 0 0 0 0 0 0 0 0 0 0
30 28 26 24 21 15 10 10 10 8 4 3 3 4 4 4 3 3 2 2 1 2 2 1 0 1 2 3 4 4 2 2 1 0 0 0 0 0 0 0 0 0 0
27 26 25 25 20 12 6 4 5 5 5 5 7 7 5 3 2 2 1 1 1 2 1 0 0 0 1 1 1 1 0 0 0 0 0 0 0 0 0 0 0 0 0
27 27 28 26 21 12 5 1 2 4 6 8 11 11 7 2 1 2 1 1 0 1 1 0 0 0 0 0 0 0 0 0 0 0 1 0 0 0 0 0 0 0 0
30 31 30 27 22 14 6 1 0 2 5 8 11 12 8 4 2 2 2 1 0 0 0 0 0 0 0 0 0 0 0 0 0 0 0 0 0 0 0 0 0 0 0
33 32 30 27 23 16 7 1 0 2 4 6 8 8 7 5 2 1 1 1 0 0 0 0 0 0 0 0 0 0 0 0 0 0 0 0 0 0 0 0 0 0 0
33 30 28 27 25 18 8 1 1 3 5 6 6 6 5 4 2 0 1 1 1 0 0 0 0 0 0 0 0 0 0 0 0 0 0 0 0 0 0 0 0 0 0
Wind_Speed
4 4 3 3 4 4 3 2 2 2 2 1 1 3 3 4 7 7 6 11 11 10 10 10 9 9 9 8 8 7 7 7 7 7 6 6 6 6 5 5 5 5 5
4 4 3 1 2 3 3 2 3 3 2 1 1 3 3 4 5 6 7 8 10 9 9 9 9 9 9 9 8 8 7 7 7 7 7 6 6 6 5 5 5 5 5
5 4 3 2 1 3 3 2 2 2 3 2 2 2 2 3 4 5 6 6 6 8 9 8 8 8 8 8 8 8 8 8 7 8 8 7 7 6 6 6 6 6 6
6 4 4 3 3 2 3 2 2 2 2 2 2 2 2 3 3 4 4 5 5 6 8 10 9 9 9 9 9 8 8 8 8 8 8 8 8 8 7 7 7 7 7
6 4 2 3 3 2 2 3 2 1 2 2 2 2 2 3 3 4 4 5 5 6 6 9 10 10 10 9 9 9 9 9 9 8 9 9 9 9 8 8 8 8 8
6 4 3 4 3 2 2 2 3 2 1 1 2 2 2 3 3 3 4 4 5 6 7 7 6 7 10 9 8 8 9 9 9 9 9 9 9 8 8 8 9 9 9
6 4 3 4 2 2 3 3 3 2 1 1 1 1 2 4 4 3 3 3 4 4 5 7 5 5 5 8 8 8 8 8 8 9 8 8 8 8 8 9 9 9 9
6 6 4 4 3 2 3 3 2 1 2 2 1 1 1 1 2 5 4 3 4 4 5 7 6 5 5 4 6 9 9 8 8 8 8 8 8 8 8 8 9 9 9
6 4 5 4 4 4 4 4 3 3 2 2 2 1 1 1 2 2 4 4 3 3 3 4 6 6 6 5 5 8 10 8 8 8 7 7 7 7 7 8 9 9 9
6 5 5 5 4 3 5 5 5 3 2 2 1 1 1 1 1 1 2 3 4 4 3 3 4 6 5 4 6 9 11 10 9 8 7 7 6 6 7 7 8 8 9
6 6 6 5 5 3 5 4 3 3 2 2 1 1 2 1 2 2 2 3 3 4 4 4 3 4 5 5 5 9 12 11 9 8 7 7 7 7 7 7 8 8 9
5 7 7 6 5 4 4 4 3 4 2 1 1 1 1 2 2 2 2 3 3 3 4 3 3 4 4 5 8 13 13 12 10 9 8 7 7 7 7 8 9 9 9
6 7 7 6 5 4 4 4 4 3 3 3 2 2 1 2 1 1 1 2 2 2 3 3 4 4 4 4 5 13 13 12 12 11 9 9 8 8 8 8 8 9 9
6 7 7 6 5 5 5 4 4 4 4 3 4 3 2 3 2 1 1 1 1 2 3 4 3 4 3 4 7 12 8 13 12 11 11 10 9 9 9 8 8 8 8
5 7 7 6 6 5 5 5 3 4 3 4 4 4 3 3 2 2 1 1 1 2 2 2 2 4 4 3 9 7 5 12 13 12 12 12 11 11 10 10 10 9 9
4 7 7 7 6 6 5 5 4 4 4 4 3 3 3 3 3 2 2 2 2 2 2 1 1 2 3 4 9 6 5 10 14 14 14 14 13 13 12 12 12 11 11
5 6 6 7 7 6 6 5 5 5 5 5 5 4 4 3 2 2 2 2 2 2 2 2 1 1 2 2 3 3 3 4 7 15 15 15 15 14 14 14 13 13 13
6 6 5 6 6 7 6 6 6 5 5 5 5 4 4 4 4 3 3 3 2 2 2 3 2 1 2 4 4 4 5 6 5 10 16 16 16 15 15 15 14 14 14
6 6 5 5 5 5 6 6 6 5 5 5 5 4 4 4 4 4 4 3 3 3 3 3 3 2 2 3 4 5 6 4 6 7 11 15 15 15 16 16 16 16 15
5 5 5 5 4 4 5 5 5 5 5 5 5 4 4 4 4 4 4 4 4 4 3 3 3 3 3 3 2 3 3 3 5 7 5 7 11 15 17 17 17 17 17
5 5 4 4 4 4 4 4 4 6 5 5 4 4 4 5 4 4 4 3 4 3 3 3 3 3 3 2 2 2 4 3 4 4 3 4 4 5 8 12 16 18 18
4 5 5 5 4 4 4 5 4 4 5 5 5 4 4 4 5 5 4 4 3 4 4 3 3 3 3 2 2 2 2 3 3 2 2 5 4 4 5 6 10 14 16
5 4 4 4 4 3 4 6 7 5 4 4 4 3 5 4 5 4 5 5 5 6 6 4 5 5 4 2 2 3 3 4 5 4 4 6 5 6 5 7 9 11 13
4 4 4 4 3 3 5 6 6 5 4 3 3 3 2 1 1 1 3 4 4 4 6 6 5 6 5 3 3 4 5 5 5 5 5 6 5 5 6 5 8 10 12
4 4 3 3 3 2 3 4 4 3 3 3 2 2 2 2 2 2 3 3 4 4 6 6 7 7 8 8 6 3 4 5 6 5 4 5 5 5 5 5 7 10 12
3 3 3 3 3 2 3 3 3 2 2 2 2 2 2 2 2 3 3 3 4 4 4 4 5 6 7 8 9 7 6 6 5 5 4 4 4 4 5 4 4 4 5
Wind_Direction
149 140 142 161 174 161 173 193 147 118 116 147 134 104 93 100 122 137 142 154 152 155 158 160 165 167 167 167 167 167 167 165 163 162 162 162 160 159 158 157 154 153 149
134 131 139 172 158 149 152 152 142 137 151 123 91 99 109 116 116 134 143 155 159 161 166 168 172 175 177 179 181 182 183 182 180 180 180 180 180 180 181 181 180 176 176
139 146 149 182 167 128 126 135 146 137 168 160 154 139 104 99 121 132 145 156 162 170 173 174 178 182 186 189 191 193 195 194 193 193 193 194 195 196 196 198 197 195 194
151 159 163 177 159 148 154 148 178 159 144 142 153 156 135 131 144 153 154 159 161 169 181 186 186 187 192 198 201 202 202 202 202 202 203 203 204 205 206 209 209 208 207
159 175 157 140 163 160 163 175 140 130 143 153 174 164 166 163 169 176 162 170 170 167 170 184 190 192 197 200 205 207 207 207 208 210 213 214 214 213 213 216 216 215 215
168 172 158 156 185 167 147 110 111 103 135 196 224 159 183 175 179 171 184 180 175 178 173 171 180 198 202 201 200 203 207 209 208 210 213 217 218 217 216 220 223 222 221
168 182 163 157 193 161 145 139 140 155 210 185 179 190 191 187 180 174 195 179 173 176 167 161 178 180 187 196 196 196 199 201 202 207 212 217 221 221 221 224 227 228 227
168 184 157 173 175 151 148 156 147 171 217 185 197 192 197 197 200 188 178 191 180 173 173 176 175 175 179 174 190 195 198 201 204 209 214 220 223 225 227 229 230 231 230
178 196 170 189 170 176 170 173 179 199 222 210 205 187 191 179 194 179 195 181 168 173 183 175 178 180 185 173 176 194 198 200 206 212 216 219 222 227 231 234 235 232 233
182 189 188 194 183 187 160 188 186 191 203 239 218 192 205 94 150 166 219 181 180 182 196 201 187 177 184 176 174 178 189 195 203 212 220 221 219 223 230 235 239 239 238
190 190 192 192 186 193 172 192 151 188 201 233 231 203 210 196 221 200 197 187 194 187 188 197 193 184 186 180 173 177 182 189 198 209 218 224 226 231 235 238 242 241 241
192 195 192 190 187 192 170 171 164 195 212 253 282 258 198 208 225 222 199 198 197 193 183 184 190 193 194 187 190 176 181 188 195 204 213 223 228 232 236 240 243 245 247
187 191 189 183 186 184 172 172 178 200 201 216 243 268 277 261 250 250 222 228 201 179 184 192 195 191 202 168 162 170 184 190 196 203 210 219 226 231 236 239 243 248 251
187 176 176 176 181 184 183 175 187 197 197 201 227 238 277 277 280 272 263 269 250 226 205 206 186 182 191 159 166 177 186 194 200 205 211 217 223 229 235 238 242 247 251
182 167 171 174 179 185 184 172 196 203 184 197 223 224 235 262 262 272 277 272 244 258 248 218 185 179 168 150 160 189 188 197 204 210 215 219 223 228 233 237 241 245 249
179 162 173 175 181 185 184 185 199 199 191 206 221 228 221 253 251 242 246 263 260 254 265 234 219 187 175 184 174 201 208 196 205 213 219 222 224 227 230 234 238 242 245
184 176 179 182 185 184 186 190 207 199 200 213 222 218 216 244 274 278 246 243 251 245 253 257 242 161 157 193 165 219 218 204 211 217 221 223 225 227 230 233 236 239 242
182 183 184 187 191 189 189 190 207 207 203 214 223 227 219 229 232 267 278 263 252 241 239 256 256 242 213 200 199 216 238 244 240 223 218 221 224 227 230 233 236 238 240
181 181 182 186 193 190 189 193 200 210 210 216 219 221 223 231 232 234 247 264 266 256 228 242 252 248 234 221 210 221 238 251 265 257 223 222 225 228 231 233 235 237 239
178 180 183 183 188 193 194 196 197 210 222 226 223 221 221 226 228 233 241 245 261 273 262 253 257 255 247 233 212 219 244 240 251 264 259 227 225 229 234 237 239 240 240
185 173 176 179 189 196 202 202 204 211 217 227 226 223 222 219 219 221 242 238 246 251 258 257 257 261 259 261 246 239 252 255 252 252 268 261 238 235 240 243 245 245 242
178 176 180 183 187 204 196 190 198 215 212 216 218 219 226 216 213 216 230 245 254 254 262 263 262 259 261 259 266 273 280 283 278 273 278 278 273 260 247 239 239 238 239
181 183 182 182 180 191 189 189 200 216 216 208 210 217 233 225 200 208 220 234 246 248 240 254 265 268 277 287 303 293 284 280 272 279 285 276 268 266 262 268 257 243 241
179 181 181 185 184 195 185 186 202 215 225 221 212 207 210 263 274 225 228 232 236 239 233 231 247 260 268 270 264 268 272 273 266 265 260 269 270 268 275 275 278 268 254
170 174 173 180 184 177 171 183 196 213 217 228 224 211 192 199 227 235 228 241 251 252 244 248 247 253 258 260 254 262 265 270 276 274 265 268 276 280 279 277 278 275 264
175 172 172 169 162 135 139 155 183 219 232 234 204 185 161 196 218 219 231 243 256 269 282 278 264 260 254 252 244 233 242 255 267 275 273 274 281 293 289 275 279 290 282